Powrót do katalogu

THOR ABLESTAR DEB

AktywnyLEO
NORAD 409·DEBRIS·🇺🇸 United States

Wystrzelony Jun 29, 1961 z Cape Canaveral Space Force Station

Loading…

Następne Przeloty (najbliższe 24 godziny)

TLE

ŚwieżeSource: Space-Track

Epoka: Sep 13, 2026, 23:55 UTC

1 00409U 61015EJ  26256.99676911  .00000688  00000-0  29911-3 0  9992
2 00409  66.7115 117.7870 0056968 114.8217 245.8821 14.29116767353993

Śledź THOR ABLESTAR DEB w czasie rzeczywistym z AllMySat

Download on the App Store